Flag for Australia Weather past 2 weeks in Cairns, Queensland, Australia

Now
84 °F

Passing clouds.


Feels Like: 98 °F
Forecast: 77 / 97 °F
Wind: 3 mph from Northwest

Location: Cairns Airport

Current Time: Jan 26, 2015 at 8:46:58 PM

Latest Report: Jan 26, 2015 at 8:00 PM


Visibility: N/A

Pressure: 29.65 "Hg

Humidity: 89%

Dew point: 81 °F

Location of CairnsLocation

Historic Weather in Cairns — Graph

°F

Cairns temperature yesterday

Maximum temperature yesterday: 91 °F (at 12:00 PM)
Minimum temperature yesterday: 77 °F (at 12:00 AM)
Average temperature yesterday: 82 °F

Past Weeks' High & Low Weather Summary

 TemperatureHumidityPressure
High95 °F (Jan 21, 1:00 PM)100% (Jan 12, 4:00 PM)29.86 "Hg (Jan 12, 4:00 PM)
Low73 °F (Jan 13, 6:00 AM)50% (Jan 21, 1:30 PM)29.53 "Hg (Jan 21, 4:30 PM)
Average83 °F80%29.71 "Hg
* Reported Jan 11 7:00 PM — Jan 26 7:30 PM, Cairns, Weather by CustomWeather, © 2014

Note: Actual official high and low records may vary slightly from our data, if they occured in-between our weather recording intervals... More about our weather records

Advertising

Cairns weather history for previous 24 hours

 ConditionsComfort  
Time TempWeatherWind HumidityBarometerVisibility
7:30 PM
Jan 26
84 °FPassing clouds.5 mph89%29.65 "HgN/A
7:00 PM84 °FPassing clouds.6 mph89%29.62 "HgN/A
6:30 PM86 °FPartly sunny.8 mph84%29.59 "HgN/A
6:00 PM88 °FPartly sunny.6 mph75%29.59 "HgN/A
5:30 PM88 °FPartly sunny.6 mph75%29.59 "HgN/A
5:00 PM88 °FScattered showers. Partly sunny.7 mph75%29.59 "HgN/A
4:30 PM88 °FPartly sunny.7 mph70%29.59 "HgN/A
4:00 PM88 °FPartly sunny.10 mph75%29.59 "HgN/A
3:30 PM90 °FPartly sunny.12 mph71%29.59 "HgN/A
3:00 PM90 °FPartly sunny.14 mph71%29.59 "HgN/A
2:30 PM90 °FPartly sunny.15 mph71%29.62 "HgN/A
2:00 PM90 °FPartly sunny.15 mph71%29.62 "HgN/A
1:00 PM95 °FPartly sunny.12 mph50%29.65 "HgN/A
12:30 PM93 °FPartly sunny.13 mph53%29.65 "HgN/A
12:00 PM93 °FPartly sunny.8 mph53%29.68 "HgN/A
11:30 AM91 °FPartly sunny.12 mph56%29.68 "HgN/A
11:00 AM90 °FPartly sunny.12 mph59%29.71 "HgN/A
10:30 AM90 °FPartly sunny.12 mph59%29.71 "HgN/A
10:00 AM90 °FPartly sunny.10 mph63%29.71 "HgN/A
9:30 AM88 °FPartly sunny.13 mph66%29.71 "HgN/A
9:00 AM86 °FPartly sunny.15 mph66%29.71 "HgN/A
8:30 AM84 °FPartly sunny.13 mph74%29.71 "HgN/A
8:00 AM82 °FPartly sunny.3 mph84%29.74 "HgN/A
7:30 AM81 °FBroken clouds.5 mph84%29.74 "HgN/A
7:00 AM79 °FBroken clouds.6 mph89%29.74 "HgN/A
6:30 AM77 °FBroken clouds.5 mph94%29.74 "HgN/A
6:00 AM77 °FPartly cloudy.7 mph94%29.74 "HgN/A
5:00 AM77 °FPassing clouds.7 mph94%29.74 "HgN/A
4:00 AM77 °FPassing clouds.1 mph94%29.71 "HgN/A
3:30 AM77 °FPassing clouds.1 mph94%29.71 "HgN/A
3:00 AM77 °FPassing clouds.1 mph94%29.71 "HgN/A
2:30 AM77 °FPassing clouds.2 mph94%29.71 "HgN/A
2:00 AM77 °FPassing clouds.6 mph94%29.71 "HgN/A
1:30 AM77 °FPassing clouds.No wind94%29.74 "HgN/A
1:00 AM77 °FLight rain. Passing clouds.6 mph94%29.74 "HgN/A
12:30 AM77 °FLight rain. Passing clouds.5 mph94%29.77 "HgN/A
12:00 AM77 °FLight rain. Passing clouds.5 mph94%29.77 "HgN/A
11:30 PM
Jan 25
79 °FLight rain. Passing clouds.6 mph89%29.77 "HgN/A
11:00 PM79 °FLight rain. Passing clouds.12 mph89%29.77 "HgN/A
10:00 PM79 °FLight rain. Passing clouds.6 mph94%29.77 "HgN/A
9:00 PM79 °FLight rain. Passing clouds.No wind94%29.74 "HgN/A
8:30 PM81 °FLight rain. Passing clouds.2 mph84%29.74 "HgN/A
8:00 PM81 °FLight rain. Partly cloudy.7 mph89%29.74 "HgN/A
Weather by CustomWeather, © 2014

See weather overviewHow to use our weather pages